Location: Dana
(41.8364°N, 106.7042°W)
Time: 14:39:44
(UTC+00:00)

Vanguard 3 - Pass Details

Date: 18 May 2026
Orbit: 507 x 3204 km, 33.3° (Epoch: 8 June)

Event Time Altitude Azimuth Distance (km) Brightness Sun altitude
Rises 02:50:33 0° 280° (W) 6,958 13.4 -5.4°
Reaches altitude 10° 02:57:07 10° 268° (W) 5,621 12.4 -6.4°
Maximum altitude 03:07:34 21° 228° (SW) 3,986 10.8 -8.0°
Drops below altitude 10° 03:15:24 10° 184° (S) 4,053 10.4 -9.2°
Sets 03:19:09 0° 169° (S) 4,612 10.6 -9.7°
